Weather History for Gulf Shores, AL

Change the Weather History Date:

Wednesday, February 27, 2013

  Actual Average (KPNS) Record (KPNS)
Temperature  
Mean Temperature 52 °F 57 °F  
Max Temperature 60 °F 66 °F 80 °F (1981)
Min Temperature 44 °F 48 °F 25 °F (1963)
Degree Days  
Heating Degree Days 13 8  
Month to date heating degree days 290  
Since 1 July heating degree days 1301  
Cooling Degree Days 0 0  
Month to date cooling degree days 0  
Year to date cooling degree days 6  
Growing Degree Days 2 (Base 50)    
Moisture  
Dew Point 40 °F    
Average Humidity 62    
Maximum Humidity 93    
Minimum Humidity 34    
Precipitation  
Precipitation 0.00 in 0.19 in 2.39 in (1903)
Month to date precipitation 4.88  
Year to date precipitation 9.51  
Snow  
Snow 0.00 in 0.00 in - ()
Month to date snowfall 0.0  
Since 1 July snowfall 0.0  
Snow Depth -    
Sea Level Pressure  
Sea Level Pressure 29.98 in    
Wind  
Wind Speed 4 mph (WSW)    
Max Wind Speed 13 mph    
Max Gust Speed 16 mph    
Visibility 10 miles    
Events      
T = Trace of Precipitation, MM = Missing Value Source: NWS Daily Summary

Daily Weather History Graph

Daily Weather History Graph

Search for Another Location

Airport:

Trip Planner

Search our weather history database for the weather conditions in past years. The results will help you decide how hot, cold, wet, or windy it might be!

Date:

Astronomy

Feb. 27, 2013 Rise Set
Actual Time 6:18 AM CST 5:48 PM CST
Civil Twilight 5:54 AM CST 6:12 PM CST
Nautical Twilight 5:26 AM CST 6:40 PM CST
Astronomical Twilight 4:58 AM CST 7:08 PM CST
Moon 7:54 PM CST (2/27) 7:05 AM CST (2/27)
Length of Visible Light 12h 17m
Length of Day
11h 29m
Waning Gibbous, 96% of the Moon is Illuminated
Feb 27
Waning Gibbous
Mar 4
Last Quarter
Mar 11
New
Mar 19
First Quarter
Mar 27
Full

Hourly Weather History & Observations

Time (CST) Temp. Windchill Dew Point Humidity Pressure Visibility Wind Dir Wind Speed Gust Speed Precip Events Conditions
12:15 AM 53.6 °F - 39.2 °F 58% 29.94 in 10.0 mi NW 4.6 mph - N/A   Clear
12:35 AM 53.6 °F - 39.2 °F 58% 29.94 in 10.0 mi NW 4.6 mph - N/A   Clear
12:55 AM 51.8 °F - 41.0 °F 67% 29.94 in 10.0 mi NNW 4.6 mph - N/A   Clear
1:15 AM 51.8 °F - 41.0 °F 67% 29.94 in 10.0 mi NW 3.5 mph - N/A   Clear
1:35 AM 51.8 °F - 41.0 °F 67% 29.94 in 10.0 mi Calm Calm - N/A   Clear
1:55 AM 51.8 °F - 41.0 °F 67% 29.94 in 10.0 mi Calm Calm - N/A   Clear
2:15 AM 50.0 °F - 41.0 °F 71% 29.93 in 10.0 mi Calm Calm - N/A   Clear
2:35 AM 50.0 °F - 41.0 °F 71% 29.94 in 10.0 mi Calm Calm - N/A   Clear
2:55 AM 46.4 °F - 42.8 °F 87% 29.94 in 10.0 mi Calm Calm - N/A   Clear
3:15 AM 46.4 °F - 42.8 °F 87% 29.94 in 10.0 mi Calm Calm - N/A   Clear
3:35 AM 46.4 °F - 42.8 °F 87% 29.94 in 10.0 mi Calm Calm - N/A   Clear
3:55 AM 46.4 °F - 42.8 °F 87% 29.95 in 10.0 mi Calm Calm - N/A   Clear
4:15 AM 46.4 °F - 42.8 °F 87% 29.95 in 10.0 mi Calm Calm - N/A   Clear
4:35 AM 46.4 °F - 42.8 °F 87% 29.97 in 10.0 mi Calm Calm - N/A   Clear
4:55 AM 44.6 °F - 42.8 °F 93% 29.97 in 10.0 mi Calm Calm - N/A   Clear
5:15 AM 44.6 °F - 42.8 °F 93% 29.97 in 10.0 mi Calm Calm - N/A   Clear
5:35 AM 44.6 °F - 42.8 °F 93% 29.97 in 10.0 mi Calm Calm - N/A   Clear
5:55 AM 46.4 °F 45.2 °F 44.6 °F 93% 29.98 in 10.0 mi WNW 3.5 mph - N/A   Clear
6:15 AM 46.4 °F - 42.8 °F 87% 29.98 in 10.0 mi Calm Calm - N/A   Clear
6:35 AM 46.4 °F - 42.8 °F 87% 29.98 in 10.0 mi Calm Calm - N/A   Clear
6:55 AM 48.2 °F - 42.8 °F 82% 29.98 in 10.0 mi Calm Calm - N/A   Clear
7:35 AM 50.0 °F - 41.0 °F 71% 30.00 in 10.0 mi Calm Calm - N/A   Clear
7:55 AM 51.8 °F - 41.0 °F 67% 30.01 in 10.0 mi Calm Calm - N/A   Clear
8:15 AM 51.8 °F - 39.2 °F 62% 30.02 in 10.0 mi Calm Calm - N/A   Clear
8:35 AM 53.6 °F - 39.2 °F 58% 30.02 in 10.0 mi Calm Calm - N/A   Clear
9:15 AM 55.4 °F - 35.6 °F 47% 30.03 in 10.0 mi Calm Calm - N/A   Clear
9:35 AM 55.4 °F - 35.6 °F 47% 30.03 in 10.0 mi Calm Calm - N/A   Clear
9:55 AM 57.2 °F - 32.0 °F 38% 30.04 in 10.0 mi West 4.6 mph - N/A   Clear
10:15 AM 57.2 °F - 32.0 °F 38% 30.05 in 10.0 mi Calm Calm - N/A   Clear
10:35 AM 57.2 °F - 32.0 °F 38% 30.05 in 10.0 mi Calm Calm - N/A   Clear
10:55 AM 59.0 °F - 33.8 °F 39% 30.05 in 10.0 mi West 5.8 mph - N/A   Clear
11:15 AM 59.0 °F - 32.0 °F 36% 30.04 in 10.0 mi WSW 5.8 mph - N/A   Clear
11:35 AM 59.0 °F - 32.0 °F 36% 30.04 in 10.0 mi West 6.9 mph - N/A   Clear
11:55 AM 59.0 °F - 30.2 °F 34% 30.04 in 10.0 mi West 9.2 mph - N/A   Clear
12:15 PM 60.8 °F - 32.0 °F 34% 30.03 in 10.0 mi SW 3.5 mph - N/A   Clear
12:55 PM 60.8 °F - 35.6 °F 39% 30.01 in 10.0 mi South 8.1 mph - N/A   Clear
1:15 PM 60.8 °F - 35.6 °F 39% 30.00 in 10.0 mi SW 8.1 mph - N/A   Clear
1:35 PM 60.8 °F - 35.6 °F 39% 30.00 in 10.0 mi SW 8.1 mph - N/A   Clear
1:55 PM 60.8 °F - 33.8 °F 36% 30.00 in 10.0 mi SW 9.2 mph - N/A   Clear
2:15 PM 60.8 °F - 33.8 °F 36% 29.99 in 10.0 mi SSW 12.7 mph 16.1 mph N/A   Clear
2:35 PM 60.8 °F - 35.6 °F 39% 29.98 in 10.0 mi SSW 9.2 mph - N/A   Clear
2:55 PM 60.8 °F - 37.4 °F 42% 29.97 in 10.0 mi SSW 11.5 mph - N/A   Clear
3:15 PM 60.8 °F - 37.4 °F 42% 29.97 in 10.0 mi SW 11.5 mph - N/A   Clear
3:35 PM 60.8 °F - 37.4 °F 42% 29.97 in 10.0 mi SW 12.7 mph 16.1 mph N/A   Clear
3:55 PM 60.8 °F - 37.4 °F 42% 29.97 in 10.0 mi SSW 11.5 mph - N/A   Clear
4:15 PM 60.8 °F - 39.2 °F 45% 29.97 in 10.0 mi SW 12.7 mph - N/A   Clear
4:35 PM 59.0 °F - 41.0 °F 51% 29.97 in 10.0 mi SW 6.9 mph - N/A   Clear
4:55 PM 59.0 °F - 42.8 °F 55% 29.97 in 10.0 mi WSW 10.4 mph - N/A   Clear
5:15 PM 59.0 °F - 41.0 °F 51% 29.97 in 10.0 mi WSW 9.2 mph - N/A   Clear
5:35 PM 57.2 °F - 42.8 °F 59% 29.98 in 10.0 mi SW 8.1 mph - N/A   Clear
5:55 PM 55.4 °F - 42.8 °F 63% 29.98 in 10.0 mi SW 4.6 mph - N/A   Clear
6:15 PM 55.4 °F - 42.8 °F 63% 29.99 in 10.0 mi SW 5.8 mph - N/A   Clear
6:35 PM 55.4 °F - 42.8 °F 63% 29.98 in 10.0 mi SW 4.6 mph - N/A   Clear
6:55 PM 53.6 °F - 42.8 °F 67% 29.98 in 10.0 mi WSW 4.6 mph - N/A   Clear
7:15 PM 53.6 °F - 44.6 °F 72% 29.98 in 10.0 mi Calm Calm - N/A   Clear
7:35 PM 53.6 °F - 44.6 °F 72% 29.99 in 10.0 mi WSW 3.5 mph - N/A   Clear
7:55 PM 53.6 °F - 44.6 °F 72% 29.98 in 10.0 mi SW 3.5 mph - N/A   Clear
8:15 PM 53.6 °F - 44.6 °F 72% 29.99 in 10.0 mi West 3.5 mph - N/A   Clear
8:35 PM 53.6 °F - 44.6 °F 72% 29.99 in 10.0 mi WSW 4.6 mph - N/A   Clear
8:55 PM 53.6 °F - 44.6 °F 72% 29.99 in 10.0 mi WSW 5.8 mph - N/A   Clear
9:15 PM 53.6 °F - 44.6 °F 72% 29.99 in 10.0 mi WSW 5.8 mph - N/A   Clear
9:35 PM 55.4 °F - 46.4 °F 72% 29.99 in 10.0 mi WSW 8.1 mph - N/A   Clear
9:55 PM 55.4 °F - 48.2 °F 77% 29.99 in 10.0 mi WSW 9.2 mph - N/A   Clear
10:35 PM 55.4 °F - 46.4 °F 72% 29.99 in 10.0 mi WSW 8.1 mph - N/A   Clear
10:55 PM 55.4 °F - 48.2 °F 77% 29.99 in 10.0 mi WSW 6.9 mph - N/A   Clear
11:15 PM 57.2 °F - 48.2 °F 72% 29.99 in 10.0 mi WSW 8.1 mph - N/A   Clear
11:35 PM 55.4 °F - 48.2 °F 77% 29.99 in 10.0 mi WSW 8.1 mph - N/A   Clear